Temperature
10 10 10 10 10 10 9 9 9 9 9 10 10 10 10 10 10 10 10 10 10 10 10 10 10 10 10 10 10 10 10 10 10 10 10 10 10 10 10 10 10 10 10
9 9 9 9 9 9 9 9 9 9 9 9 9 9 9 9 9 9 9 9 9 9 10 10 10 10 10 10 10 10 10 10 10 10 10 10 10 10 10 10 10 10 10
9 9 9 9 9 9 9 9 8 8 8 8 8 8 9 9 9 9 9 9 9 9 9 9 9 9 9 9 9 9 9 9 9 9 9 9 9 9 9 9 9 9 9
8 8 8 8 8 8 8 8 8 8 8 8 8 8 8 8 8 9 8 9 9 9 9 9 8 8 8 8 9 9 9 9 9 9 9 9 9 9 9 9 9 9 9
7 8 8 8 8 8 8 7 7 7 7 7 7 7 7 7 7 8 8 8 8 8 8 8 8 8 8 8 8 8 8 8 8 8 8 8 8 8 8 8 8 8 8
7 7 7 7 7 7 7 7 7 7 7 7 7 7 7 7 7 7 7 7 7 7 7 7 8 8 8 7 7 7 8 8 8 8 8 8 8 8 8 8 8 8 8
6 6 6 6 6 6 6 6 6 6 6 6 6 6 6 6 6 6 6 7 6 6 7 7 7 7 7 7 7 7 7 7 7 7 8 7 7 7 7 7 7 7 8
6 6 6 6 6 6 6 5 5 5 5 5 5 5 4 5 5 5 6 6 6 6 6 6 6 6 6 6 6 6 7 7 7 7 7 7 7 7 7 7 7 7 7
5 5 5 5 5 5 5 5 5 5 4 4 4 4 4 4 4 4 5 5 5 5 5 5 5 5 6 6 6 6 6 6 6 6 6 6 7 6 6 6 6 7 7
4 4 4 4 4 4 4 4 4 4 4 4 3 3 3 3 3 3 4 4 4 4 4 4 5 5 5 5 5 5 5 6 6 6 6 6 6 6 6 6 6 6 6
3 3 3 4 3 3 3 3 3 3 3 3 3 3 3 3 3 3 2 3 3 4 3 4 4 4 4 4 4 5 5 5 5 5 5 5 6 6 5 5 5 5 6
3 3 3 3 3 3 3 3 3 3 2 2 2 2 2 2 2 2 2 2 2 3 3 3 3 3 4 4 4 4 4 4 4 5 5 5 5 5 5 5 5 5 5
2 2 2 2 2 2 2 2 2 2 2 1 1 1 1 1 2 1 1 1 1 1 2 2 2 3 3 3 3 3 3 4 4 4 4 4 4 4 5 5 5 4 4
1 1 1 1 1 1 1 1 1 1 1 1 1 1 1 1 1 1 1 0 -0 0 1 1 2 2 2 2 2 3 3 3 3 3 3 4 4 4 4 4 4 4 4
1 1 1 1 1 1 1 1 1 0 0 0 0 0 0 0 0 0 0 0 -0 -1 -1 0 1 1 1 1 2 2 2 2 2 2 3 3 3 3 3 3 3 3 3
0 0 0 0 0 0 0 0 -0 -0 -0 -0 -0 -0 -0 -0 -0 -0 -0 -0 -0 -0 -1 -0 0 0 1 1 1 1 1 2 2 2 2 2 2 2 2 3 3 3 3
-1 -1 -0 -1 -1 -1 -1 -1 -1 -1 -1 -1 -1 -1 -1 -1 -1 -1 -1 -1 -1 -1 -1 -1 -1 -0 -0 0 0 0 1 1 1 1 1 1 1 1 2 2 2 2 2
-1 -1 -1 -1 -1 -1 -1 -1 -2 -2 -2 -2 -2 -2 -2 -2 -2 -2 -2 -2 -2 -1 -1 -1 -1 -1 -1 -1 -0 -0 0 0 0 0 0 1 1 1 1 1 1 1 1
-2 -2 -2 -2 -2 -2 -2 -2 -2 -3 -3 -2 -2 -2 -2 -2 -2 -2 -2 -2 -2 -2 -2 -2 -2 -1 -1 -1 -1 -1 -1 -1 -0 -0 -0 -0 0 0 0 0 0 1 1
-3 -3 -3 -3 -3 -3 -3 -3 -3 -3 -3 -3 -3 -3 -3 -3 -3 -3 -3 -3 -3 -3 -3 -3 -2 -2 -2 -2 -2 -2 -2 -1 -1 -1 -1 -1 -1 -1 -0 -0 -0 -0 -0
-4 -3 -3 -3 -3 -4 -4 -4 -4 -4 -4 -4 -4 -4 -4 -4 -4 -4 -4 -4 -4 -4 -4 -4 -3 -3 -3 -3 -3 -3 -3 -2 -2 -2 -2 -1 -1 -1 -1 -1 -1 -1 -1
-4 -4 -4 -4 -4 -4 -5 -5 -5 -5 -5 -5 -5 -5 -5 -5 -5 -5 -5 -4 -4 -4 -4 -4 -4 -4 -3 -3 -3 -3 -3 -3 -3 -3 -2 -2 -2 -2 -1 -1 -1 -1 -1
-5 -5 -5 -5 -5 -5 -5 -6 -6 -6 -6 -6 -6 -6 -6 -5 -5 -5 -5 -5 -5 -5 -4 -4 -4 -4 -4 -3 -4 -4 -4 -4 -3 -3 -3 -3 -3 -3 -2 -2 -2 -2 -2
-6 -6 -6 -6 -6 -6 -6 -6 -6 -6 -7 -7 -6 -6 -6 -6 -6 -6 -6 -6 -5 -5 -5 -5 -5 -4 -4 -4 -4 -4 -4 -4 -4 -4 -4 -4 -3 -3 -3 -3 -3 -3 -3
-7 -7 -7 -7 -7 -7 -7 -7 -7 -7 -7 -7 -7 -7 -7 -7 -7 -7 -7 -6 -6 -6 -6 -6 -5 -5 -5 -5 -5 -5 -5 -5 -5 -5 -5 -5 -4 -4 -4 -3 -3 -3 -3
-8 -8 -8 -8 -8 -8 -8 -8 -8 -8 -8 -8 -8 -8 -8 -8 -7 -7 -7 -7 -7 -6 -6 -6 -6 -6 -6 -5 -5 -5 -5 -6 -6 -5 -5 -5 -5 -5 -5 -4 -4 -4 -4
Wind_Speed
4 4 4 4 5 5 5 5 5 6 6 7 8 8 8 8 8 8 8 9 9 9 8 9 9 9 8 8 8 8 8 8 8 8 8 9 9 9 9 10 10 10 9
4 4 4 4 5 4 4 5 5 5 5 6 6 7 7 6 7 7 7 7 8 8 8 7 7 7 7 7 6 6 6 6 7 7 7 7 8 8 8 8 8 8 8
5 4 3 3 4 5 5 5 5 5 4 5 5 6 5 6 6 6 6 6 6 6 6 6 6 5 5 5 5 5 5 5 5 6 6 6 6 6 7 7 7 7 7
5 5 3 3 4 4 4 4 3 3 3 3 3 3 4 4 5 5 5 5 5 5 5 5 5 5 4 4 4 4 4 4 4 4 5 5 5 5 6 6 6 6 6
5 5 4 3 4 3 3 3 2 2 3 3 3 3 3 3 3 5 5 5 5 5 4 4 4 4 4 4 4 4 3 3 4 4 4 4 4 4 4 5 5 5 5
5 5 4 4 4 3 2 2 3 3 2 2 2 3 2 2 3 3 3 4 4 4 4 3 3 3 3 3 3 4 3 3 3 3 3 3 4 3 4 5 5 5 5
4 5 4 3 3 2 2 2 2 3 2 2 2 2 2 2 2 2 2 3 4 3 3 3 3 2 2 2 3 2 2 2 2 3 3 3 3 3 3 4 5 5 4
4 4 4 2 2 2 2 2 2 2 1 1 1 1 0 1 2 2 1 1 2 3 3 2 2 2 1 2 2 3 2 2 3 2 2 3 3 3 3 4 5 5 5
3 3 3 3 2 3 2 2 2 2 2 1 1 2 2 2 1 1 1 0 1 1 1 2 1 1 2 2 3 3 3 4 3 3 3 4 4 4 4 5 5 5 6
2 2 2 2 2 2 3 2 1 1 2 2 1 1 0 1 1 1 1 1 1 1 1 0 1 2 2 3 3 3 4 4 5 5 5 5 5 5 5 5 6 6 6
2 2 2 2 2 2 2 2 1 1 1 1 1 1 0 1 1 2 2 2 2 2 1 2 2 2 3 4 4 5 5 5 5 6 6 6 6 6 6 6 5 5 5
1 1 1 1 1 1 2 2 2 2 1 1 1 1 1 1 1 1 2 2 3 3 3 2 2 3 4 5 5 6 7 6 6 7 7 7 7 7 7 7 6 6 6
1 2 1 1 1 1 1 2 2 2 2 2 2 2 2 2 2 1 2 2 3 3 2 2 2 3 4 4 5 7 6 7 7 7 8 8 8 8 8 8 7 7 7
2 2 1 1 1 2 2 2 2 2 3 3 3 2 2 2 2 2 3 2 3 3 2 3 2 3 3 4 6 6 6 8 9 9 9 8 8 8 8 8 8 7 7
2 2 2 2 2 2 2 3 3 3 3 3 3 3 3 2 2 2 3 4 3 4 5 3 2 2 2 3 5 6 6 8 9 9 10 9 9 9 9 9 8 8 7
2 3 3 3 3 2 3 3 3 3 3 3 3 3 3 2 2 2 3 3 3 4 5 3 3 3 4 5 7 7 7 9 10 10 10 10 10 9 9 9 9 9 8
2 3 3 3 3 3 3 3 3 4 4 4 3 4 4 3 3 3 3 3 4 3 6 5 3 3 3 4 5 6 7 7 8 10 10 10 10 10 10 10 9 9 10
2 3 3 3 3 3 3 3 4 4 4 5 4 4 5 4 4 4 4 4 4 4 5 7 4 3 4 4 4 5 6 7 7 10 11 11 11 11 11 11 10 10 10
2 2 3 3 3 3 4 4 4 4 5 5 5 5 5 5 5 4 5 5 5 5 4 5 5 4 4 4 4 4 4 5 7 9 11 11 12 12 12 12 11 11 11
2 2 3 3 4 4 4 4 4 5 5 4 5 5 5 6 6 6 6 6 5 5 5 5 5 4 4 4 3 4 4 4 5 6 8 10 11 12 12 12 12 12 12
2 2 3 3 4 4 4 4 5 5 4 4 4 5 5 7 8 7 6 5 5 5 5 5 6 5 5 4 5 4 5 4 4 4 4 6 7 8 9 12 12 12 12
2 2 2 3 4 4 6 7 6 4 4 4 5 5 5 7 9 10 10 10 9 7 7 7 7 7 7 6 4 4 4 4 5 3 3 5 5 6 8 9 12 13 13
2 2 2 3 4 5 7 8 8 4 4 5 5 5 5 6 8 6 9 10 10 12 12 9 8 8 7 7 6 6 6 6 6 4 3 6 5 7 8 11 14 14 13
2 3 3 3 4 5 7 8 7 4 4 5 6 6 6 6 7 7 7 7 7 8 10 8 8 8 7 7 7 7 7 5 4 4 4 5 5 5 6 9 14 15 14
3 3 3 3 4 5 7 7 7 3 4 5 5 6 6 6 10 11 8 7 8 8 10 12 13 12 12 12 10 5 5 5 6 5 4 4 4 4 4 6 11 14 14
3 3 4 3 4 4 7 7 6 3 4 4 4 5 8 8 11 11 7 7 8 7 6 7 8 9 9 10 12 9 7 6 5 5 4 4 3 2 4 4 6 8 9
Wind_Direction
44 52 64 66 71 73 66 54 49 48 48 52 52 52 54 58 59 60 64 73 80 81 83 88 88 88 93 96 103 103 101 101 103 104 102 100 98 97 97 99 97 95 97
51 46 54 59 61 74 72 63 55 50 51 54 52 51 56 58 66 68 69 69 74 79 81 84 86 87 87 89 103 112 115 111 109 113 113 111 106 103 101 101 105 101 98
55 52 47 61 56 65 83 77 66 58 52 54 48 46 52 60 61 64 66 69 71 75 80 83 86 88 92 91 103 111 122 124 119 119 122 123 121 118 117 107 108 111 107
65 63 51 51 62 66 73 83 88 78 60 50 42 36 44 56 61 62 68 70 71 75 80 82 87 94 97 98 95 104 127 136 133 125 126 131 131 131 130 123 116 117 116
65 73 59 47 69 67 71 84 91 99 85 57 40 34 34 38 49 63 68 74 79 83 83 81 88 97 101 105 108 106 109 129 135 141 142 140 138 141 141 142 137 133 128
62 72 68 58 64 80 82 101 107 93 99 89 52 35 19 22 43 50 70 82 84 89 88 86 86 98 119 122 117 112 113 118 117 125 141 147 151 152 153 154 147 143 140
66 70 71 75 67 94 99 104 108 108 98 100 73 41 12 7 27 16 64 87 83 91 96 92 84 84 101 146 143 130 133 144 142 133 150 162 174 178 172 173 170 164 157
70 75 70 85 87 100 100 97 109 114 132 133 124 119 77 353 354 342 23 78 87 89 87 105 112 124 141 151 167 174 169 185 189 179 177 178 179 187 196 195 190 189 186
72 71 80 83 91 111 132 121 113 127 163 201 112 136 156 207 295 304 292 339 66 61 69 107 133 178 189 169 169 195 212 212 208 213 213 204 202 202 209 215 209 208 204
79 79 87 92 97 103 128 143 98 125 154 181 237 334 281 166 181 266 304 300 320 298 272 253 211 200 200 194 195 213 227 226 223 226 230 227 222 218 217 218 219 221 214
109 102 94 91 100 106 127 130 122 147 154 189 201 288 316 343 324 197 246 275 297 274 262 257 228 204 210 214 206 221 234 239 240 237 239 239 234 230 230 230 227 227 220
151 149 140 115 116 112 136 151 171 182 198 204 221 221 208 195 210 217 236 247 271 279 286 258 223 210 218 221 225 234 238 240 245 247 246 245 244 237 237 238 238 237 233
202 185 153 147 154 158 182 182 192 201 209 213 217 232 233 236 228 231 223 255 279 286 274 265 238 218 225 224 231 238 237 240 246 248 249 249 249 248 243 241 242 242 241
201 192 181 201 212 212 218 205 207 222 220 218 230 233 234 237 231 221 218 225 272 280 257 252 260 220 217 239 242 250 246 248 246 245 248 253 254 256 252 244 241 242 241
198 194 202 213 224 221 223 210 216 223 223 225 223 230 239 242 229 229 225 213 218 253 263 247 239 240 235 249 264 263 247 248 250 248 248 249 253 250 252 245 239 239 241
200 196 200 210 217 220 225 220 223 224 225 230 226 222 237 248 240 230 225 236 240 244 261 255 255 253 239 252 267 268 261 258 251 251 250 247 248 246 246 248 240 238 242
198 200 202 208 213 213 216 219 223 220 225 234 233 228 236 238 244 244 235 237 244 245 262 275 272 240 229 239 255 260 262 257 251 251 253 250 247 244 243 245 244 243 241
225 214 213 214 219 219 219 220 227 225 223 228 231 229 237 238 240 244 238 242 246 242 249 264 264 244 243 233 239 250 258 257 256 257 253 252 251 246 242 243 245 242 241
245 232 220 221 225 227 227 229 229 227 227 227 228 229 234 233 239 242 241 246 250 248 241 248 254 249 248 235 242 254 257 256 256 259 253 252 252 249 245 243 242 241 241
251 242 238 233 232 236 236 233 235 231 230 232 234 233 234 233 234 235 238 240 244 241 236 243 246 248 247 236 229 242 262 260 261 257 252 257 255 251 248 246 243 239 238
262 256 254 243 239 238 238 233 232 234 234 240 244 244 244 248 248 244 242 236 235 238 234 239 242 244 242 232 233 234 251 263 263 242 246 252 251 247 246 243 242 241 240
260 255 257 248 241 250 257 256 253 236 236 240 247 251 253 253 253 254 254 251 243 237 232 237 244 236 239 237 238 237 249 259 269 234 234 256 242 245 245 242 245 244 242
250 244 248 252 251 256 261 261 260 251 234 236 241 245 254 256 259 254 254 257 257 255 247 239 243 241 240 234 230 238 239 245 259 245 246 261 245 248 243 244 246 244 243
247 246 246 251 259 271 272 265 263 255 243 242 241 239 244 249 254 256 253 253 255 256 252 249 246 243 239 228 227 235 240 252 268 244 223 253 253 253 248 242 243 241 241
257 255 248 248 255 270 279 277 274 249 249 250 251 250 250 249 255 260 257 253 257 262 261 260 258 255 249 244 239 235 231 240 262 252 221 234 250 264 257 244 238 235 238
259 265 268 261 256 261 277 286 286 256 259 260 256 256 256 259 259 260 257 250 252 257 261 265 262 256 247 242 245 229 221 230 255 258 225 222 242 253 270 251 228 234 237
Height
1526 1527 1529 1530 1531 1532 1533 1534 1536 1537 1538 1539 1540 1541 1541 1542 1543 1544 1545 1546 1547 1548 1549 1550 1551 1552 1553 1554 1554 1555 1556 1557 1558 1559 1560 1561 1561 1562 1563 1564 1565 1566 1567
1524 1525 1527 1528 1529 1531 1532 1533 1534 1535 1537 1538 1539 1540 1541 1541 1542 1543 1544 1545 1546 1547 1548 1549 1550 1551 1552 1553 1553 1554 1555 1556 1557 1558 1559 1560 1560 1561 1562 1563 1564 1565 1566
1522 1523 1524 1525 1527 1528 1530 1531 1533 1534 1535 1536 1537 1538 1539 1540 1541 1542 1543 1544 1545 1546 1547 1548 1549 1550 1550 1551 1552 1553 1554 1555 1555 1556 1557 1558 1559 1560 1561 1562 1563 1564 1565
1519 1521 1522 1523 1524 1526 1527 1529 1530 1532 1533 1534 1535 1536 1537 1538 1539 1540 1541 1542 1543 1545 1546 1547 1547 1548 1549 1550 1550 1551 1552 1553 1554 1554 1556 1557 1558 1559 1559 1560 1561 1562 1563
1517 1518 1520 1521 1521 1523 1525 1526 1528 1529 1530 1531 1533 1534 1535 1536 1537 1538 1539 1540 1541 1543 1544 1545 1546 1547 1547 1548 1548 1549 1550 1551 1552 1552 1554 1555 1555 1557 1558 1559 1559 1561 1562
1514 1515 1517 1518 1519 1520 1522 1524 1525 1526 1528 1529 1530 1531 1533 1534 1535 1536 1537 1538 1539 1540 1541 1542 1544 1544 1545 1546 1547 1547 1548 1548 1549 1550 1551 1552 1553 1554 1555 1556 1557 1558 1559
1512 1513 1514 1515 1516 1517 1519 1520 1522 1523 1524 1526 1527 1528 1530 1531 1532 1534 1535 1535 1536 1538 1539 1540 1541 1542 1543 1544 1544 1545 1545 1546 1547 1548 1549 1550 1551 1552 1553 1554 1555 1556 1557
1509 1510 1511 1512 1513 1514 1516 1517 1518 1519 1521 1523 1524 1525 1527 1529 1529 1531 1532 1533 1534 1535 1536 1537 1538 1539 1540 1541 1541 1542 1542 1543 1544 1545 1546 1547 1548 1549 1550 1551 1552 1553 1554
1506 1507 1508 1509 1510 1511 1512 1514 1515 1516 1518 1520 1522 1523 1525 1524 1526 1527 1528 1529 1530 1531 1532 1533 1534 1535 1536 1537 1538 1539 1539 1540 1541 1542 1543 1544 1545 1546 1547 1548 1548 1549 1550
1502 1504 1505 1506 1507 1508 1509 1511 1512 1514 1515 1516 1518 1520 1522 1522 1523 1523 1524 1526 1527 1528 1529 1530 1531 1531 1532 1533 1534 1535 1536 1537 1538 1539 1540 1540 1542 1543 1543 1544 1545 1546 1547
1499 1500 1501 1502 1504 1505 1505 1507 1509 1511 1512 1513 1515 1516 1517 1519 1519 1519 1519 1521 1523 1524 1525 1526 1527 1527 1528 1529 1530 1531 1532 1533 1534 1535 1536 1536 1538 1539 1540 1540 1541 1542 1543
1495 1496 1497 1499 1500 1501 1502 1504 1506 1507 1508 1510 1511 1513 1513 1514 1515 1516 1516 1516 1517 1519 1520 1521 1522 1523 1524 1525 1526 1527 1528 1529 1530 1531 1532 1533 1533 1534 1535 1536 1537 1538 1539
1490 1492 1493 1495 1496 1498 1499 1500 1502 1503 1505 1506 1507 1509 1510 1511 1512 1513 1513 1513 1513 1514 1515 1516 1518 1519 1520 1520 1521 1522 1523 1524 1525 1526 1527 1528 1529 1529 1531 1532 1532 1533 1534
1486 1488 1489 1491 1492 1493 1495 1496 1498 1499 1501 1502 1503 1504 1506 1507 1508 1508 1510 1510 1509 1509 1510 1511 1512 1514 1515 1516 1516 1517 1518 1519 1520 1521 1522 1523 1524 1525 1525 1527 1528 1529 1529
1482 1484 1485 1486 1488 1489 1490 1492 1493 1495 1496 1497 1498 1500 1501 1502 1503 1504 1505 1506 1507 1505 1504 1505 1507 1508 1510 1511 1512 1512 1513 1514 1515 1516 1517 1518 1519 1520 1520 1521 1522 1523 1524
1478 1479 1480 1482 1483 1484 1485 1487 1488 1490 1491 1492 1493 1494 1496 1497 1498 1499 1500 1501 1502 1501 1499 1499 1501 1503 1504 1505 1506 1507 1508 1509 1509 1510 1511 1512 1513 1514 1515 1516 1517 1518 1519
1474 1475 1476 1477 1478 1479 1480 1481 1483 1484 1485 1486 1488 1489 1490 1491 1492 1493 1494 1495 1496 1496 1495 1494 1496 1497 1498 1499 1500 1501 1502 1502 1503 1504 1505 1506 1507 1508 1509 1510 1511 1512 1513
1469 1470 1471 1472 1473 1474 1475 1476 1477 1478 1479 1480 1482 1483 1484 1485 1486 1488 1488 1489 1490 1491 1491 1489 1489 1491 1492 1493 1494 1494 1495 1496 1497 1498 1499 1500 1501 1502 1503 1504 1505 1506 1507
1465 1466 1467 1467 1468 1469 1470 1470 1472 1473 1474 1475 1476 1477 1478 1479 1480 1481 1482 1483 1484 1485 1485 1485 1484 1485 1486 1487 1487 1488 1489 1490 1491 1491 1492 1493 1495 1495 1496 1497 1498 1499 1500
1460 1461 1462 1463 1463 1464 1465 1465 1466 1467 1468 1469 1470 1471 1472 1473 1474 1475 1475 1477 1478 1478 1479 1479 1478 1479 1480 1481 1482 1482 1482 1483 1484 1485 1486 1487 1488 1489 1489 1490 1491 1492 1493
1455 1456 1457 1458 1458 1459 1460 1460 1461 1462 1463 1463 1464 1465 1466 1467 1468 1469 1469 1470 1471 1472 1472 1473 1473 1473 1473 1474 1475 1476 1476 1476 1477 1478 1479 1480 1481 1481 1482 1483 1484 1485 1486
1451 1452 1452 1453 1453 1454 1455 1456 1456 1456 1457 1457 1458 1459 1459 1460 1461 1463 1463 1464 1465 1466 1466 1466 1466 1466 1466 1468 1469 1470 1470 1470 1469 1472 1473 1473 1474 1474 1475 1476 1477 1478 1479
1446 1447 1447 1448 1448 1449 1449 1450 1451 1451 1451 1451 1452 1452 1453 1454 1455 1456 1456 1457 1458 1459 1460 1461 1460 1460 1460 1461 1463 1463 1464 1464 1464 1465 1467 1465 1467 1467 1468 1469 1470 1471 1472
1441 1442 1442 1442 1443 1443 1444 1444 1445 1445 1445 1445 1445 1446 1447 1447 1448 1449 1450 1450 1450 1451 1452 1454 1454 1454 1455 1455 1457 1457 1457 1458 1458 1460 1461 1460 1459 1460 1461 1462 1463 1464 1466
1436 1437 1437 1438 1437 1438 1439 1439 1439 1439 1438 1438 1439 1440 1441 1441 1442 1444 1444 1443 1443 1444 1445 1447 1447 1448 1448 1449 1450 1451 1451 1451 1451 1452 1454 1454 1453 1453 1454 1454 1456 1457 1459
1432 1432 1432 1433 1433 1433 1433 1434 1434 1434 1433 1433 1433 1434 1435 1436 1436 1437 1438 1437 1436 1437 1438 1439 1439 1440 1441 1441 1443 1443 1444 1445 1444 1445 1446 1447 1447 1448 1447 1447 1449 1451 1452